sat.trackr.live / text

‹ back to catalog

STARLINK-5721

NORAD 55617 · 2023-020BA

PAYLOAD ACTIVE UNKNOWN

§ Identity

Operator
Country
US
Launch date
2023-02-12
Launch site
AFETR
Launch vehicle
Mass (kg)
RCS (m²)

Purposes: comms

External: N2YO · Heavens-Above · Gunter

§ Orbital elements

Epoch: 2026-09-20T11:36:24.780960Z

Period
94.27 min
Inclination
43.0014°
Eccentricity
0.0001303
Mean motion
15.27576562 rev/d
Perigee alt
482.2 km
Apogee alt
484.0 km
Semi-major
6,861.2 km
B*
1.8046e-5
RAAN
333.8705°
Arg perigee
272.8281°
Mean anomaly
87.2422°
Rev number
19,883

§ Raw data

STARLINK-57211 55617U 23020BA  26263.48362015  .00000234  00000+0  18046-4 0  99902 55617  43.0014 333.8705 0001303 272.8281  87.2422 15.27576562198834

JSON: /api/v1/satellites/55617 · /tle

For live sub-satellite position, see the globe view (requires WebGL).

§ Visibility from observer

Set your observer location to see the next 7 days of passes ≥ 10°. The values pass through the URL so the page stays shareable.

No JS? Fill the form by hand. The geolocation button needs JavaScript.